Location: Apeadero de Los Molinos-Guadarrama
(40.7091°N, 4.0689°W)
Time: 10:07:23
(UTC+00:00)

Cosmos 1898 Rocket - Pass Details

Date: 14 May 2021
Orbit: 753 x 784 km, 74.0° (Epoch: 20 June)

Event Time Altitude Azimuth Distance (km) Brightness Sun altitude
Exits shadow 22:36:33 29° 240° (WSW) 1,402 4.8 -26.4°
Maximum altitude 22:38:50 46° 294° (WNW) 1,045 4.4 -26.6°
Drops below altitude 10° 22:43:57 10° 8° (N) 2,346 6.7 -27.0°
Sets 22:46:27 0° 14° (NNE) 3,280 7.5 -27.2°
